This is the latest recevied weather packets stored in our database for station/object ZL1CTS-13. If no packets are shown the sender has not sent any weather packets the latest 10 day(s).
| Time | Temp. | Humidity | Pressure | Rain* | Wind** | Luminosity | Snow |
|---|---|---|---|---|---|---|---|
| 1788033004 | 7.78° C | 97% | 995.6 hPa | 0 mm | - | - | - |
| 1788032706 | 7.22° C | 97% | 995.6 hPa | 0 mm | - | - | - |
| 1788032404 | 7.22° C | 97% | 995.5 hPa | 0 mm | - | - | - |
| 1788032107 | 7.22° C | 97% | 995.4 hPa | 0 mm | - | - | - |
| 1788031804 | 6.67° C | 98% | 995.3 hPa | 0 mm | - | - | - |
| 1788031504 | 6.67° C | 98% | 995.2 hPa | 0 mm | - | - | - |
| 1788031204 | 7.22° C | 97% | 995.1 hPa | 0 mm | - | - | - |
| 1788030904 | 7.22° C | 97% | 995.2 hPa | 0 mm | - | - | - |
| 1788030604 | 7.22° C | 97% | 995.1 hPa | 0 mm | - | - | - |
| 1788030304 | 7.22° C | 97% | 995.2 hPa | 0 mm | - | - | - |
| 1788030004 | 6.67° C | 98% | 995 hPa | 0 mm | - | - | - |
| 1788029703 | 6.67° C | 98% | 995.1 hPa | 0 mm | - | - | - |
| 1788029404 | 6.11° C | 98% | 995.2 hPa | 0 mm | - | - | - |
| 1788029104 | 6.11° C | 98% | 995.2 hPa | 0 mm | - | - | - |
| 1788028804 | 6.67° C | 98% | 995.2 hPa | 0 mm | - | - | - |
| 1788028504 | 6.67° C | 98% | 995.2 hPa | 0 mm | - | - | - |
| 1788028204 | 6.67° C | 98% | 995.1 hPa | 0 mm | - | - | - |
| 1788027903 | 6.67° C | 98% | 995.1 hPa | 0 mm | - | - | - |
| 1788027604 | 6.67° C | 98% | 995.1 hPa | 0 mm | - | - | - |
| 1788027304 | 6.67° C | 98% | 995.2 hPa | 0 mm | - | - | - |
| 1788027004 | 6.67° C | 98% | 995.3 hPa | 0 mm | - | - | - |
| 1788026704 | 6.67° C | 98% | 995.2 hPa | 0 mm | - | - | - |
| 1788026404 | 6.67° C | 98% | 995.1 hPa | 0 mm | - | - | - |
| 1788026115 | 6.67° C | 98% | 995.1 hPa | 0 mm | - | - | - |
| 1788025804 | 6.67° C | 98% | 995.1 hPa | 0 mm | - | - | - |
* Rain latest hour (hover to see other rain measurements)
** Current wind speed in m/s (hover to see current wind gust speed)